Location: Home
(42.5358°N, 72.7383°W)
Time: 18:18:11
(UTC-05:00)

A-11 Canister half - Pass Details

Date: 07 December 2021
Orbit: 1516 x 1684 km, 47.2° (Epoch: 18 January)

Event Time Altitude Azimuth Distance (km) Brightness Sun altitude
Rises 11:11:23 0° 294° (WNW) 4,860 11.3 24.4°
Reaches altitude 10° 11:14:28 10° 293° (WNW) 3,891 10.9 24.5°
Maximum altitude 11:24:31 82° 208° (SSW) 1,692 9.8 24.6°
Drops below altitude 10° 11:34:42 10° 123° (ESE) 3,941 11.7 24.8°
Sets 11:37:51 0° 123° (ESE) 4,925 12.1 24.8°
